Regional Weather Roundup
Issued by NWS

Home | Current Version | Previous Version | Text Only | Print | Product List | Glossary Off
Versions: 1 2 3 4 5 6 7 8 9 10 11 12 13 14 15 16 17 18 19 20 21 22 23 24 25 26 27

000
ASUS45 KSLC 221610
RWRUT

UTAH REGIONAL WEATHER ROUNDUP
NATIONAL WEATHER SERVICE SALT LAKE CITY UT
900 AM MST SUN JAN 22 2017

UTZ001>011-023>025-221700-

NORTHERN UTAH

CITY           SKY/WX    TMP DP  RH WIND       PRES   REMARKS
BRIGHAM CITY     N/A     21  19  90 N3        29.96R
HILL AFB       PTSUNNY   28  18  66 SE10      29.93S WCI  18
LOGAN          PTSUNNY   16  15  96 CALM      29.94S
OGDEN          CLOUDY    26  19  74 S14       29.93R WCI  14
SALT LAKE CITY CLOUDY    30  23  75 SE14      29.95S WCI  19
TOOELE VALLEY  CLOUDY    34  27  75 S17G26    29.92S WCI  23
WENDOVER       CLOUDY    25  18  74 N5        29.91R WCI  19
HEBER CITY     CLOUDY    18  14  86 CALM      29.97S
WEST JORDAN    CLOUDY    29  26  90 S16       29.96F WCI  17

$$

UTZ011>015-024>027-221700-

CENTRAL/NORTHEAST UTAH

CITY           SKY/WX    TMP DP  RH WIND       PRES   REMARKS
PROVO AIRPORT  CLOUDY    23  21  92 SW6       30.00F WCI  16
MOAB/CANYONLAN PTSUNNY   32  28  85 SE5       30.07S WCI  27
DELTA          CLOUDY    30  23  74 S9        29.96F WCI  22
PRICE          PTSUNNY   19  13  77 CALM      30.03R
ROOSEVELT      MOSUNNY   19  18  93 CALM      30.11R
VERNAL         CLOUDY    15  13  91 CALM      30.08R

$$

UTZ013>016-019>022-027-221700-

SOUTHERN UTAH

CITY           SKY/WX    TMP DP  RH WIND       PRES   REMARKS
BRYCE CANYON   CLOUDY    20  15  81 SE14      30.04R WCI   7
CEDAR CITY     CLOUDY    32  23  69 SW10      29.99R WCI  24
MILFORD        CLOUDY    30  23  75 SW15      29.97R WCI  19
ST GEORGE      CLOUDY    37  30  75 E6        30.14S WCI  33
HANKSVILLE     CLOUDY    30  27  86 MISG      30.11R
BLANDING       CLOUDY    20  17  86 NE9       30.18S WCI   9

$$

REGIONAL REPORTS     COLORADO/ARIZONA

CITY           SKY/WX    TMP DP  RH WIND       PRES   REMARKS
CRAIG, CO      CLOUDY     6   3  87 CALM      30.05S
GRAND JUNCTION SUNNY     28  25  88 E8        30.12R WCI  20
RIFLE, CO      SUNNY     24  19  81 W5        30.10R WCI  18
MONTROSE, CO   CLOUDY    23  15  71 SE7       30.15R WCI  15
CORTEZ, CO     CLOUDY    14  12  92 CALM      30.15R
COLORADO CITY  LGT SNOW  32  32 100 E7        30.15R WCI  26
PAGE, AZ       CLOUDY    35  26  69 CALM      30.11R
GRAND CANYON   SNOW      25  24  96 SW7       30.14R VSB 1/4 WCI  17
KINGMAN, AZ    CLOUDY    43  23  45 SE14      30.11R
FLAGSTAFF, AZ  LGT SNOW  25  24  96 W9        30.15R VSB 1   WCI  15

$$

REGIONAL REPORTS    NEVADA/IDAHO/WYOMING

CITY           SKY/WX    TMP DP  RH WIND       PRES   REMARKS
LAS VEGAS, NV  LGT RAIN  46  38  73 S5        30.05R
ELY, NY        MIX PCPN  28  22  78 S24G41    29.86S WCI  14
ELKO, NV       CLOUDY    34  22  61 S18G32    29.75F WCI  23
POCATELLO, ID  MOCLDY    34  22  61 S22G32    29.87S WCI  22
BURLEY, ID     CLOUDY    33  20  58 NE5       29.80F WCI  29
FORT BRIDGER,    N/A     15   5  66 W5        29.97R WCI   7
EVANSTON, WY   CLOUDY    12   6  77 E8        29.92S WCI   0
ROCK SPRINGS,  CLOUDY    15  10  80 W3        29.97R

$$




USA.gov is the U.S. government's official web portal to all federal, state and local government web resources and services.